"read_dt","SO2 (ppb)","flags","PMT voltage (V)","lamp voltage (V)","lamp intensity (Hz)","internal temp (C)","react chamber temp (C)","sample flow (l/min)","pres (mmHg)","SO2 bkg (ppb)","SO2 coefficient"
2016-08-30 00:00:00,2230E-3,5C000400,-0723,0828,12319,033.3,045.6,0.244,759.7,01.16,0.508
2016-08-30 00:01:00,2229E-3,5C000400,-0723,0828,12178,033.3,045.6,0.244,759.7,01.16,0.508
2016-08-30 00:02:00,2090E-3,5C000400,-0723,0828,12125,033.3,045.6,0.245,759.7,01.16,0.508
2016-08-30 00:03:00,2150E-3,5C000400,-0723,0828,12371,033.3,045.6,0.245,759.7,01.16,0.508
2016-08-30 00:04:00,2145E-3,5C000400,-0723,0829,12308,033.3,045.6,0.245,759.7,01.16,0.508
2016-08-30 00:05:00,2106E-3,5C000400,-0723,0828,12191,033.3,045.6,0.245,759.7,01.16,0.508
2016-08-30 00:06:00,2234E-3,5C000400,-0723,0828,12262,033.3,045.6,0.245,759.7,01.16,0.508
2016-08-30 00:07:00,2256E-3,5C000400,-0723,0828,12087,033.3,045.6,0.245,759.7,01.16,0.508
2016-08-30 00:08:00,2146E-3,5C000400,-0723,0828,12178,033.3,045.6,0.245,759.6,01.16,0.508
2016-08-30 00:09:00,1969E-3,5C000400,-0723,0828,12228,033.3,045.6,0.245,759.7,01.16,0.508
2016-08-30 00:10:00,2261E-3,5C000400,-0723,0828,12225,033.3,045.6,0.245,759.7,01.16,0.508
2016-08-30 00:11:00,2203E-3,5C000400,-0723,0829,12252,033.3,045.6,0.245,759.7,01.16,0.508
2016-08-30 00:12:00,2305E-3,5C000400,-0723,0828,12219,033.3,045.6,0.245,759.7,01.16,0.508
2016-08-30 00:13:00,2078E-3,5C000400,-0723,0829,12286,033.3,045.6,0.245,759.7,01.16,0.508
2016-08-30 00:14:00,2082E-3,5C000400,-0723,0829,12294,033.3,045.6,0.245,759.7,01.16,0.508
2016-08-30 00:15:00,2169E-3,5C000400,-0723,0829,12095,033.3,045.6,0.245,759.7,01.16,0.508
2016-08-30 00:16:00,2140E-3,5C000400,-0723,0828,12186,033.3,045.6,0.245,759.6,01.16,0.508
2016-08-30 00:17:00,2096E-3,5C000400,-0723,0828,12174,033.3,045.6,0.244,759.7,01.16,0.508
2016-08-30 00:18:00,2147E-3,5C000400,-0723,0827,12174,033.3,045.6,0.245,759.7,01.16,0.508
2016-08-30 00:19:00,2070E-3,5C000400,-0723,0828,12257,033.3,045.6,0.245,759.7,01.16,0.508
2016-08-30 00:20:00,2065E-3,5C000400,-0723,0828,12161,033.3,045.6,0.244,759.7,01.16,0.508
2016-08-30 00:21:00,2156E-3,5C000400,-0723,0829,12246,033.3,045.6,0.244,759.7,01.16,0.508
2016-08-30 00:22:00,2146E-3,5C000400,-0723,0829,12208,033.3,045.6,0.244,759.7,01.16,0.508
2016-08-30 00:23:00,2019E-3,5C000400,-0723,0828,12136,033.4,045.6,0.244,759.7,01.16,0.508
2016-08-30 00:24:00,2064E-3,5C000400,-0723,0829,12291,033.4,045.6,0.244,759.7,01.16,0.508
2016-08-30 00:25:00,2140E-3,5C000400,-0723,0828,12223,033.4,045.6,0.244,759.7,01.16,0.508
2016-08-30 00:26:00,1991E-3,5C000400,-0723,0829,12358,033.3,045.6,0.244,759.7,01.16,0.508
2016-08-30 00:27:00,2136E-3,5C000400,-0723,0828,12046,033.4,045.6,0.244,759.7,01.16,0.508
2016-08-30 00:28:00,2131E-3,5C000400,-0723,0829,12205,033.4,045.6,0.244,759.7,01.16,0.508
2016-08-30 00:29:00,2238E-3,5C000400,-0723,0828,12201,033.4,045.6,0.244,759.8,01.16,0.508
2016-08-30 00:30:00,2201E-3,5C000400,-0723,0829,12200,033.4,045.6,0.244,759.8,01.16,0.508
2016-08-30 00:31:00,2284E-3,5C000400,-0723,0828,12114,033.4,045.6,0.244,759.8,01.16,0.508
2016-08-30 00:32:00,2141E-3,5C000400,-0723,0829,12321,033.4,045.6,0.244,759.8,01.16,0.508
2016-08-30 00:33:00,2093E-3,5C000400,-0723,0829,12278,033.4,045.6,0.244,759.7,01.16,0.508
2016-08-30 00:34:00,2135E-3,5C000400,-0723,0829,12241,033.4,045.6,0.245,759.8,01.16,0.508
2016-08-30 00:35:00,2150E-3,5C000400,-0723,0828,12215,033.4,045.6,0.245,759.8,01.16,0.508
2016-08-30 00:36:00,2031E-3,5C000400,-0723,0828,12145,033.4,045.6,0.244,759.8,01.16,0.508
2016-08-30 00:37:00,2218E-3,5C000400,-0723,0828,12080,033.4,045.6,0.245,759.8,01.16,0.508
2016-08-30 00:38:00,2175E-3,5C000400,-0723,0828,12220,033.4,045.6,0.245,759.8,01.16,0.508
2016-08-30 00:39:00,2087E-3,5C000400,-0723,0829,12145,033.4,045.6,0.245,759.8,01.16,0.508
2016-08-30 00:40:00,2145E-3,5C000400,-0723,0829,12247,033.4,045.6,0.245,759.7,01.16,0.508
2016-08-30 00:41:00,2095E-3,5C000400,-0723,0830,12182,033.4,045.6,0.245,759.7,01.16,0.508
2016-08-30 00:42:00,2098E-3,5C000400,-0723,0828,12191,033.4,045.6,0.245,759.8,01.16,0.508
2016-08-30 00:43:00,2137E-3,5C000400,-0723,0829,12301,033.4,045.6,0.245,759.8,01.16,0.508
2016-08-30 00:44:00,2027E-3,5C000400,-0723,0829,12269,033.5,045.6,0.245,759.8,01.16,0.508
2016-08-30 00:45:00,2084E-3,5C000400,-0723,0828,12117,033.5,045.6,0.245,759.8,01.16,0.508
2016-08-30 00:46:00,2025E-3,5C000400,-0723,0829,12178,033.5,045.6,0.245,759.8,01.16,0.508
2016-08-30 00:47:00,2155E-3,5C000400,-0723,0829,12329,033.5,045.6,0.245,759.8,01.16,0.508
2016-08-30 00:48:00,2280E-3,5C000400,-0723,0829,12173,033.5,045.6,0.245,759.8,01.16,0.508
2016-08-30 00:49:00,2047E-3,5C000400,-0723,0829,12200,033.5,045.6,0.245,759.8,01.16,0.508
2016-08-30 00:50:00,2101E-3,5C000400,-0723,0829,12174,033.5,045.6,0.244,759.8,01.16,0.508
2016-08-30 00:51:00,2169E-3,5C000400,-0723,0828,12329,033.5,045.6,0.244,759.8,01.16,0.508
2016-08-30 00:52:00,2126E-3,5C000400,-0723,0828,12167,033.5,045.6,0.244,759.7,01.16,0.508
2016-08-30 00:53:00,2170E-3,5C000400,-0723,0829,12169,033.5,045.6,0.244,759.7,01.16,0.508
2016-08-30 00:54:00,2209E-3,5C000400,-0723,0829,12214,033.5,045.6,0.244,759.7,01.16,0.508
2016-08-30 00:55:00,2214E-3,5C000400,-0723,0828,12030,033.5,045.6,0.244,759.7,01.16,0.508
2016-08-30 00:56:00,2157E-3,5C000400,-0723,0829,12132,033.5,045.6,0.244,759.7,01.16,0.508
2016-08-30 00:57:00,2200E-3,5C000400,-0723,0828,12067,033.6,045.6,0.244,759.7,01.16,0.508
2016-08-30 00:58:00,2066E-3,5C000400,-0723,0828,12230,033.5,045.6,0.244,759.8,01.16,0.508
2016-08-30 00:59:00,2263E-3,5C000400,-0723,0829,12217,033.5,045.6,0.244,759.7,01.16,0.508
2016-08-30 01:00:00,2157E-3,5C000400,-0723,0829,12066,033.5,045.6,0.244,759.7,01.16,0.508
2016-08-30 01:01:00,2172E-3,5C000400,-0723,0829,12236,033.5,045.6,0.244,759.7,01.16,0.508
2016-08-30 01:02:00,2188E-3,5C000400,-0723,0829,12316,033.6,045.6,0.244,759.7,01.16,0.508
2016-08-30 01:03:00,2240E-3,5C000400,-0723,0829,12259,033.5,045.6,0.244,759.7,01.16,0.508
2016-08-30 01:04:00,2071E-3,5C000400,-0723,0828,12233,033.6,045.6,0.244,759.7,01.16,0.508
2016-08-30 01:05:00,2187E-3,5C000400,-0723,0829,12078,033.5,045.6,0.244,759.6,01.16,0.508
2016-08-30 01:06:00,2199E-3,5C000400,-0723,0828,12142,033.6,045.6,0.244,759.8,01.16,0.508
2016-08-30 01:07:00,1985E-3,5C000400,-0723,0828,12175,033.6,045.6,0.244,759.7,01.16,0.508
2016-08-30 01:08:00,2055E-3,5C000400,-0723,0828,12111,033.6,045.6,0.244,759.7,01.16,0.508
2016-08-30 01:09:00,2127E-3,5C000400,-0723,0829,12254,033.6,045.6,0.244,759.8,01.16,0.508
2016-08-30 01:10:00,2142E-3,5C000400,-0723,0829,12173,033.6,045.6,0.244,759.7,01.16,0.508
2016-08-30 01:11:00,2149E-3,5C000400,-0723,0828,12146,033.6,045.6,0.244,759.7,01.16,0.508
2016-08-30 01:12:00,2028E-3,5C000400,-0723,0829,12216,033.6,045.6,0.244,759.7,01.16,0.508
2016-08-30 01:13:00,2162E-3,5C000400,-0723,0828,12194,033.6,045.6,0.244,759.7,01.16,0.508
2016-08-30 01:14:00,2042E-3,5C000400,-0723,0828,12193,033.6,045.6,0.244,759.7,01.16,0.508
2016-08-30 01:15:00,2141E-3,5C000400,-0723,0829,12197,033.6,045.6,0.244,759.7,01.16,0.508
2016-08-30 01:16:00,2228E-3,5C000400,-0723,0828,12185,033.6,045.6,0.243,759.7,01.16,0.508
2016-08-30 01:17:00,2096E-3,5C000400,-0723,0828,12205,033.6,045.6,0.244,759.7,01.16,0.508
2016-08-30 01:18:00,2000E-3,5C000400,-0723,0829,12265,033.6,045.6,0.244,759.7,01.16,0.508
2016-08-30 01:19:00,2324E-3,5C000400,-0723,0829,12279,033.6,045.6,0.243,759.6,01.16,0.508
2016-08-30 01:20:00,2162E-3,5C000400,-0723,0829,12258,033.6,045.6,0.243,759.6,01.16,0.508
2016-08-30 01:21:00,2139E-3,5C000400,-0723,0828,12069,033.6,045.6,0.243,759.7,01.16,0.508
2016-08-30 01:22:00,2185E-3,5C000400,-0723,0828,12169,033.6,045.6,0.243,759.7,01.16,0.508
2016-08-30 01:23:00,2149E-3,5C000400,-0723,0829,12109,033.6,045.6,0.243,759.7,01.16,0.508
2016-08-30 01:24:00,2153E-3,5C000400,-0723,0827,12233,033.7,045.6,0.243,759.6,01.16,0.508
2016-08-30 01:25:00,2135E-3,5C000400,-0723,0828,12166,033.7,045.6,0.243,759.6,01.16,0.508
2016-08-30 01:26:00,2156E-3,5C000400,-0723,0828,12062,033.7,045.6,0.243,759.7,01.16,0.508
2016-08-30 01:27:00,2122E-3,5C000400,-0723,0828,12103,033.7,045.6,0.243,759.7,01.16,0.508
2016-08-30 01:28:00,2100E-3,5C000400,-0723,0829,12307,033.7,045.6,0.243,759.6,01.16,0.508
2016-08-30 01:29:00,2093E-3,5C000400,-0723,0828,12170,033.6,045.6,0.243,759.7,01.16,0.508
2016-08-30 01:30:00,2193E-3,5C000400,-0723,0828,12363,033.7,045.6,0.243,759.6,01.16,0.508
2016-08-30 01:31:00,2224E-3,5C000400,-0723,0828,12224,033.7,045.6,0.243,759.7,01.16,0.508
2016-08-30 01:32:00,2105E-3,5C000400,-0723,0828,12229,033.7,045.6,0.243,759.7,01.16,0.508
2016-08-30 01:33:00,2073E-3,5C000400,-0723,0828,12172,033.7,045.6,0.243,759.6,01.16,0.508
2016-08-30 01:34:00,2106E-3,5C000400,-0723,0828,12074,033.7,045.6,0.243,759.7,01.16,0.508
2016-08-30 01:35:00,2102E-3,5C000400,-0723,0829,12186,033.7,045.6,0.243,759.6,01.16,0.508
2016-08-30 01:36:00,2151E-3,5C000400,-0723,0828,12200,033.7,045.6,0.243,759.7,01.16,0.508
2016-08-30 01:37:00,2146E-3,5C000400,-0723,0828,12121,033.7,045.6,0.243,759.7,01.16,0.508
2016-08-30 01:38:00,2096E-3,5C000400,-0723,0828,12273,033.7,045.6,0.243,759.7,01.16,0.508
2016-08-30 01:39:00,2231E-3,5C000400,-0723,0828,12101,033.7,045.6,0.243,759.7,01.16,0.508
2016-08-30 01:40:00,2113E-3,5C000400,-0723,0828,12230,033.7,045.6,0.244,759.7,01.16,0.508
2016-08-30 01:41:00,2124E-3,5C000400,-0723,0828,12138,033.7,045.6,0.244,759.6,01.16,0.508
2016-08-30 01:42:00,2077E-3,5C000400,-0723,0828,12198,033.7,045.6,0.244,759.7,01.16,0.508
2016-08-30 01:43:00,2076E-3,5C000400,-0723,0828,12245,033.7,045.6,0.244,759.6,01.16,0.508
2016-08-30 01:44:00,2091E-3,5C000400,-0723,0829,12124,033.7,045.6,0.244,759.6,01.16,0.508
2016-08-30 01:45:00,2092E-3,5C000400,-0723,0828,12310,033.7,045.6,0.244,759.5,01.16,0.508
2016-08-30 01:46:00,2146E-3,5C000400,-0723,0828,12235,033.7,045.6,0.244,759.6,01.16,0.508
2016-08-30 01:47:00,2057E-3,5C000400,-0723,0828,12205,033.7,045.6,0.244,759.6,01.16,0.508
2016-08-30 01:48:00,2197E-3,5C000400,-0723,0828,12257,033.8,045.6,0.244,759.6,01.16,0.508
2016-08-30 01:49:00,2201E-3,5C000400,-0723,0828,12141,033.8,045.6,0.244,759.5,01.16,0.508
2016-08-30 01:50:00,2261E-3,5C000400,-0723,0828,12267,033.8,045.6,0.244,759.5,01.16,0.508
2016-08-30 01:51:00,2012E-3,5C000400,-0723,0828,12169,033.8,045.6,0.244,759.5,01.16,0.508
2016-08-30 01:52:00,2155E-3,5C000400,-0723,0828,12184,033.8,045.6,0.244,759.5,01.16,0.508
2016-08-30 01:53:00,2189E-3,5C000400,-0723,0829,12182,033.8,045.6,0.244,759.5,01.16,0.508
2016-08-30 01:54:00,2236E-3,5C000400,-0723,0828,12211,033.8,045.6,0.244,759.5,01.16,0.508
2016-08-30 01:55:00,2199E-3,5C000400,-0723,0828,12274,033.8,045.6,0.244,759.5,01.16,0.508
2016-08-30 01:56:00,2170E-3,5C000400,-0723,0828,12201,033.8,045.6,0.244,759.6,01.16,0.508
2016-08-30 01:57:00,2024E-3,5C000400,-0723,0828,12261,033.8,045.6,0.244,759.7,01.16,0.508
2016-08-30 01:58:00,2064E-3,5C000400,-0723,0828,12244,033.8,045.6,0.244,759.6,01.16,0.508
2016-08-30 01:59:00,1991E-3,5C000400,-0723,0829,12178,033.8,045.6,0.244,759.6,01.16,0.508
2016-08-30 02:00:00,2131E-3,5C000400,-0723,0829,12124,033.8,045.6,0.244,759.7,01.16,0.508
2016-08-30 02:01:00,2240E-3,5C000400,-0723,0828,12177,033.8,045.6,0.244,759.7,01.16,0.508
2016-08-30 02:02:00,2169E-3,5C000400,-0723,0828,12097,033.8,045.6,0.243,759.6,01.16,0.508
2016-08-30 02:03:00,2079E-3,5C000400,-0723,0828,12142,033.8,045.6,0.243,759.6,01.16,0.508
2016-08-30 02:04:00,2256E-3,5C000400,-0723,0828,11943,033.8,045.6,0.243,759.6,01.16,0.508
2016-08-30 02:05:00,2105E-3,5C000400,-0723,0829,12222,033.8,045.6,0.243,759.6,01.16,0.508
2016-08-30 02:06:00,2225E-3,5C000400,-0723,0829,12270,033.9,045.6,0.243,759.6,01.16,0.508
2016-08-30 02:07:00,2170E-3,5C000400,-0723,0828,12112,033.9,045.6,0.243,759.6,01.16,0.508
2016-08-30 02:08:00,2235E-3,5C000400,-0723,0828,12116,033.9,045.6,0.243,759.5,01.16,0.508
2016-08-30 02:09:00,2169E-3,5C000400,-0723,0828,12201,033.9,045.7,0.243,759.5,01.16,0.508
2016-08-30 02:10:00,2164E-3,5C000400,-0723,0828,12293,033.9,045.6,0.243,759.5,01.16,0.508
2016-08-30 02:11:00,2161E-3,5C000400,-0723,0828,12151,033.9,045.6,0.243,759.4,01.16,0.508
2016-08-30 02:12:00,2065E-3,5C000400,-0723,0828,12193,033.9,045.6,0.243,759.5,01.16,0.508
2016-08-30 02:13:00,2129E-3,5C000400,-0723,0828,12074,033.9,045.6,0.243,759.5,01.16,0.508
2016-08-30 02:14:00,2151E-3,5C000400,-0723,0828,12282,033.9,045.6,0.243,759.5,01.16,0.508
2016-08-30 02:15:00,2140E-3,5C000400,-0723,0828,12199,033.9,045.6,0.243,759.5,01.16,0.508
2016-08-30 02:16:00,2107E-3,5C000400,-0723,0828,12237,033.9,045.6,0.243,759.4,01.16,0.508
2016-08-30 02:17:00,2200E-3,5C000400,-0723,0829,12176,033.9,045.6,0.243,759.5,01.16,0.508
2016-08-30 02:18:00,2217E-3,5C000400,-0723,0828,12097,033.9,045.6,0.243,759.5,01.16,0.508
2016-08-30 02:19:00,2074E-3,5C000400,-0723,0828,12319,033.9,045.6,0.243,759.5,01.16,0.508
2016-08-30 02:20:00,2088E-3,5C000400,-0723,0827,12180,033.9,045.6,0.243,759.5,01.16,0.508
2016-08-30 02:21:00,2099E-3,5C000400,-0723,0828,12260,033.9,045.6,0.243,759.5,01.16,0.508
2016-08-30 02:22:00,2219E-3,5C000400,-0723,0828,12231,033.9,045.6,0.243,759.5,01.16,0.508
2016-08-30 02:23:00,2156E-3,5C000400,-0723,0828,12043,033.9,045.6,0.243,759.5,01.16,0.508
2016-08-30 02:24:00,2286E-3,5C000400,-0723,0828,12156,033.9,045.6,0.243,759.5,01.16,0.508
2016-08-30 02:25:00,2228E-3,5C000400,-0723,0828,12106,033.9,045.6,0.243,759.5,01.16,0.508
2016-08-30 02:26:00,2086E-3,5C000400,-0723,0828,12183,034.0,045.6,0.243,759.6,01.16,0.508
2016-08-30 02:27:00,2173E-3,5C000400,-0723,0828,12095,034.0,045.6,0.243,759.5,01.16,0.508
2016-08-30 02:28:00,2152E-3,5C000400,-0723,0828,12289,033.9,045.6,0.243,759.5,01.16,0.508
2016-08-30 02:29:00,2348E-3,5C000400,-0723,0828,12218,034.0,045.6,0.243,759.5,01.16,0.508
2016-08-30 02:30:00,2142E-3,5C000400,-0723,0828,12278,034.0,045.6,0.243,759.4,01.16,0.508
2016-08-30 02:31:00,2041E-3,5C000400,-0723,0828,12196,034.0,045.6,0.243,759.5,01.16,0.508
2016-08-30 02:32:00,2208E-3,5C000400,-0723,0828,12216,034.0,045.6,0.243,759.4,01.16,0.508
2016-08-30 02:33:00,2245E-3,5C000400,-0723,0828,12200,034.0,045.6,0.243,759.4,01.16,0.508
2016-08-30 02:34:00,2208E-3,5C000400,-0723,0829,12246,034.0,045.6,0.243,759.5,01.16,0.508
2016-08-30 02:35:00,2141E-3,5C000400,-0723,0828,12179,034.0,045.6,0.243,759.4,01.16,0.508
2016-08-30 02:36:00,2255E-3,5C000400,-0723,0828,12183,034.0,045.6,0.243,759.4,01.16,0.508
2016-08-30 02:37:00,2129E-3,5C000400,-0723,0829,12179,034.0,045.7,0.243,759.4,01.16,0.508
2016-08-30 02:38:00,2135E-3,5C000400,-0723,0828,12200,034.0,045.6,0.243,759.4,01.16,0.508
2016-08-30 02:39:00,2070E-3,5C000400,-0723,0828,12212,034.0,045.6,0.243,759.4,01.16,0.508
2016-08-30 02:40:00,2251E-3,5C000400,-0723,0829,12088,034.0,045.6,0.243,759.4,01.16,0.508
2016-08-30 02:41:00,2161E-3,5C000400,-0723,0828,12224,034.0,045.6,0.243,759.4,01.16,0.508
2016-08-30 02:42:00,2126E-3,5C000400,-0723,0829,12152,034.0,045.6,0.243,759.4,01.16,0.508
2016-08-30 02:43:00,2229E-3,5C000400,-0723,0828,12245,034.0,045.7,0.243,759.4,01.16,0.508
2016-08-30 02:44:00,2328E-3,5C000400,-0723,0829,12141,034.1,045.7,0.243,759.4,01.16,0.508
2016-08-30 02:45:00,2164E-3,5C000400,-0723,0829,12135,034.0,045.6,0.243,759.4,01.16,0.508
2016-08-30 02:46:00,2102E-3,5C000400,-0723,0829,12226,034.0,045.6,0.243,759.4,01.16,0.508
2016-08-30 02:47:00,1967E-3,5C000400,-0723,0828,12231,034.1,045.6,0.243,759.3,01.16,0.508
2016-08-30 02:48:00,2084E-3,5C000400,-0723,0828,12242,034.1,045.6,0.243,759.4,01.16,0.508
2016-08-30 02:49:00,2197E-3,5C000400,-0723,0827,12123,034.1,045.6,0.243,759.4,01.16,0.508
2016-08-30 02:50:00,2272E-3,5C000400,-0723,0828,12120,034.1,045.6,0.243,759.4,01.16,0.508
2016-08-30 02:51:00,2043E-3,5C000400,-0723,0828,12250,034.1,045.6,0.243,759.4,01.16,0.508
2016-08-30 02:52:00,2196E-3,5C000400,-0723,0827,12091,034.1,045.6,0.243,759.4,01.16,0.508
2016-08-30 02:53:00,2260E-3,5C000400,-0723,0828,12244,034.1,045.6,0.243,759.3,01.16,0.508
2016-08-30 02:54:00,2154E-3,5C000400,-0723,0828,12251,034.1,045.6,0.243,759.4,01.16,0.508
2016-08-30 02:55:00,2191E-3,5C000400,-0723,0828,12251,034.1,045.7,0.243,759.4,01.16,0.508
2016-08-30 02:56:00,2172E-3,5C000400,-0723,0828,12333,034.1,045.7,0.243,759.3,01.16,0.508
2016-08-30 02:57:00,2166E-3,5C000400,-0723,0828,12275,034.2,045.6,0.243,759.4,01.16,0.508
2016-08-30 02:58:00,2022E-3,5C000400,-0723,0828,12228,034.1,045.6,0.243,759.3,01.16,0.508
2016-08-30 02:59:00,2171E-3,5C000400,-0723,0828,12067,034.2,045.6,0.243,759.3,01.16,0.508
2016-08-30 03:00:00,2080E-3,5C000400,-0723,0828,12254,034.2,045.6,0.243,759.3,01.16,0.508
2016-08-30 03:01:00,2225E-3,5C000400,-0723,0828,12224,034.2,045.6,0.243,759.3,01.16,0.508
2016-08-30 03:02:00,2134E-3,5C000400,-0723,0829,12255,034.2,045.6,0.243,759.3,01.16,0.508
2016-08-30 03:03:00,2205E-3,5C000400,-0723,0829,12012,034.2,045.6,0.243,759.4,01.16,0.508
2016-08-30 03:04:00,2066E-3,5C000400,-0723,0828,12186,034.2,045.6,0.243,759.4,01.16,0.508
2016-08-30 03:05:00,2139E-3,5C000400,-0723,0829,12191,034.2,045.6,0.243,759.4,01.16,0.508
2016-08-30 03:06:00,2128E-3,5C000400,-0723,0829,12244,034.2,045.7,0.243,759.3,01.16,0.508
2016-08-30 03:07:00,2172E-3,5C000400,-0723,0828,12181,034.2,045.7,0.242,759.3,01.16,0.508
2016-08-30 03:08:00,2208E-3,5C000400,-0723,0828,12193,034.2,045.7,0.242,759.3,01.16,0.508
2016-08-30 03:09:00,2173E-3,5C000400,-0723,0829,11845,034.2,045.6,0.242,759.3,01.16,0.508
2016-08-30 03:10:00,2109E-3,5C000400,-0723,0829,12100,034.2,045.6,0.242,759.3,01.16,0.508
2016-08-30 03:11:00,2137E-3,5C000400,-0723,0828,12166,034.2,045.7,0.243,759.2,01.16,0.508
2016-08-30 03:12:00,2048E-3,5C000400,-0723,0829,12170,034.2,045.7,0.243,759.3,01.16,0.508
2016-08-30 03:13:00,2209E-3,5C000400,-0723,0828,12109,034.2,045.7,0.243,759.3,01.16,0.508
2016-08-30 03:14:00,2074E-3,5C000400,-0723,0829,12257,034.3,045.6,0.243,759.3,01.16,0.508
2016-08-30 03:15:00,2216E-3,5C000400,-0723,0829,12278,034.3,045.7,0.243,759.3,01.16,0.508
2016-08-30 03:16:00,2112E-3,5C000400,-0723,0828,12235,034.3,045.6,0.243,759.3,01.16,0.508
2016-08-30 03:17:00,2052E-3,5C000400,-0723,0828,12331,034.3,045.6,0.243,759.3,01.16,0.508
2016-08-30 03:18:00,2195E-3,5C000400,-0723,0828,12291,034.3,045.6,0.243,759.4,01.16,0.508
2016-08-30 03:19:00,2339E-3,5C000400,-0723,0828,12193,034.3,045.7,0.243,759.3,01.16,0.508
2016-08-30 03:20:00,2124E-3,5C000400,-0723,0827,12319,034.3,045.7,0.242,759.3,01.16,0.508
2016-08-30 03:21:00,2198E-3,5C000400,-0723,0828,12281,034.3,045.7,0.242,759.4,01.16,0.508
2016-08-30 03:22:00,2190E-3,5C000400,-0723,0828,12243,034.3,045.6,0.242,759.4,01.16,0.508
2016-08-30 03:23:00,2196E-3,5C000400,-0723,0828,12144,034.4,045.6,0.242,759.4,01.16,0.508
2016-08-30 03:24:00,2078E-3,5C000400,-0723,0829,12154,034.4,045.7,0.242,759.4,01.16,0.508
2016-08-30 03:25:00,2174E-3,5C000400,-0723,0829,12267,034.3,045.7,0.242,759.4,01.16,0.508
2016-08-30 03:26:00,2187E-3,5C000400,-0723,0828,12079,034.4,045.7,0.242,759.4,01.16,0.508
2016-08-30 03:27:00,2192E-3,5C000400,-0723,0828,12085,034.4,045.7,0.242,759.3,01.16,0.508
2016-08-30 03:28:00,2163E-3,5C000400,-0723,0829,12192,034.4,045.7,0.243,759.4,01.16,0.508
2016-08-30 03:29:00,2223E-3,5C000400,-0723,0829,12189,034.4,045.7,0.243,759.2,01.16,0.508
2016-08-30 03:30:00,2163E-3,5C000400,-0723,0829,12350,034.4,045.6,0.242,759.3,01.16,0.508
2016-08-30 03:31:00,2205E-3,5C000400,-0723,0828,12165,034.4,045.7,0.242,759.3,01.16,0.508
2016-08-30 03:32:00,2196E-3,5C000400,-0723,0829,12164,034.4,045.7,0.242,759.3,01.16,0.508
2016-08-30 03:33:00,2184E-3,5C000400,-0723,0828,12213,034.4,045.7,0.242,759.3,01.16,0.508
2016-08-30 03:34:00,2174E-3,5C000400,-0723,0828,12155,034.4,045.6,0.242,759.2,01.16,0.508
2016-08-30 03:35:00,2283E-3,5C000400,-0723,0828,12198,034.4,045.6,0.242,759.2,01.16,0.508
2016-08-30 03:36:00,2222E-3,5C000400,-0723,0828,12221,034.3,045.6,0.242,759.2,01.16,0.508
2016-08-30 03:37:00,2188E-3,5C000400,-0723,0829,12197,034.3,045.6,0.242,759.3,01.16,0.508
2016-08-30 03:38:00,2197E-3,5C000400,-0723,0829,12181,034.1,045.6,0.242,759.3,01.16,0.508
2016-08-30 03:39:00,2154E-3,5C000400,-0723,0828,12235,034.0,045.6,0.242,759.3,01.16,0.508
2016-08-30 03:40:00,2173E-3,5C000400,-0723,0828,12082,033.8,045.6,0.243,759.3,01.16,0.508
2016-08-30 03:41:00,1975E-3,5C000400,-0723,0828,12101,033.8,045.6,0.243,759.3,01.16,0.508
2016-08-30 03:42:00,2232E-3,5C000400,-0723,0827,12134,033.7,045.6,0.243,759.3,01.16,0.508
2016-08-30 03:43:00,2372E-3,5C000400,-0723,0828,12210,033.6,045.6,0.243,759.3,01.16,0.508
2016-08-30 03:44:00,2083E-3,5C000400,-0723,0828,12192,033.6,045.6,0.243,759.3,01.16,0.508
2016-08-30 03:45:00,2260E-3,5C000400,-0723,0828,12206,033.5,045.6,0.243,759.4,01.16,0.508
2016-08-30 03:46:00,2179E-3,5C000400,-0723,0827,12263,033.4,045.6,0.243,759.3,01.16,0.508
2016-08-30 03:47:00,2120E-3,5C000400,-0723,0828,12322,033.4,045.6,0.243,759.3,01.16,0.508
2016-08-30 03:48:00,2009E-3,5C000400,-0723,0828,12279,033.3,045.6,0.243,759.4,01.16,0.508
2016-08-30 03:49:00,2125E-3,5C000400,-0723,0828,12212,033.3,045.6,0.244,759.4,01.16,0.508
2016-08-30 03:50:00,2096E-3,5C000400,-0723,0827,12247,033.3,045.6,0.244,759.4,01.16,0.508
2016-08-30 03:51:00,2135E-3,5C000400,-0723,0827,12199,033.2,045.6,0.244,759.3,01.16,0.508
2016-08-30 03:52:00,2225E-3,5C000400,-0723,0827,12072,033.2,045.6,0.244,759.3,01.16,0.508
2016-08-30 03:53:00,2184E-3,5C000400,-0723,0828,12195,033.2,045.6,0.244,759.4,01.16,0.508
2016-08-30 03:54:00,2141E-3,5C000400,-0723,0828,12300,033.1,045.6,0.244,759.3,01.16,0.508
2016-08-30 03:55:00,2093E-3,5C000400,-0723,0828,12168,033.1,045.6,0.245,759.3,01.16,0.508
2016-08-30 03:56:00,2180E-3,5C000400,-0723,0827,12039,033.1,045.6,0.245,759.4,01.16,0.508
2016-08-30 03:57:00,2211E-3,5C000400,-0723,0828,12141,033.0,045.6,0.245,759.4,01.16,0.508
2016-08-30 03:58:00,2118E-3,5C000400,-0723,0828,12179,033.0,045.6,0.245,759.3,01.16,0.508
2016-08-30 03:59:00,2179E-3,5C000400,-0723,0828,12182,033.0,045.6,0.245,759.4,01.16,0.508
2016-08-30 04:00:00,2200E-3,5C000400,-0723,0828,12168,032.9,045.6,0.244,759.4,01.16,0.508
2016-08-30 04:01:00,2095E-3,5C000400,-0723,0828,12270,032.9,045.6,0.244,759.4,01.16,0.508
2016-08-30 04:02:00,2100E-3,5C000400,-0723,0829,12262,032.8,045.6,0.245,759.4,01.16,0.508
2016-08-30 04:03:00,2147E-3,5C000400,-0723,0828,12284,032.8,045.6,0.245,759.4,01.16,0.508
2016-08-30 04:04:00,2119E-3,5C000400,-0723,0828,12219,032.8,045.6,0.245,759.3,01.16,0.508
2016-08-30 04:05:00,2167E-3,5C000400,-0723,0827,12177,032.8,045.6,0.245,759.3,01.16,0.508
2016-08-30 04:06:00,2192E-3,5C000400,-0723,0828,12060,032.8,045.6,0.245,759.3,01.16,0.508
2016-08-30 04:07:00,2039E-3,5C000400,-0723,0828,12149,032.7,045.6,0.246,759.4,01.16,0.508
2016-08-30 04:08:00,2253E-3,5C000400,-0723,0828,12253,032.7,045.6,0.246,759.4,01.16,0.508
2016-08-30 04:09:00,2211E-3,5C000400,-0723,0827,12138,032.7,045.6,0.246,759.4,01.16,0.508
2016-08-30 04:10:00,2289E-3,5C000400,-0723,0827,12182,032.7,045.6,0.246,759.5,01.16,0.508
2016-08-30 04:11:00,2130E-3,5C000400,-0723,0827,12190,032.7,045.6,0.246,759.4,01.16,0.508
2016-08-30 04:12:00,2124E-3,5C000400,-0723,0827,12197,032.7,045.6,0.246,759.4,01.16,0.508
2016-08-30 04:13:00,2112E-3,5C000400,-0723,0828,12189,032.7,045.6,0.246,759.5,01.16,0.508
2016-08-30 04:14:00,2151E-3,5C000400,-0723,0828,12255,032.7,045.6,0.246,759.4,01.16,0.508
2016-08-30 04:15:00,2106E-3,5C000400,-0723,0827,12114,032.6,045.6,0.246,759.3,01.16,0.508
2016-08-30 04:16:00,2140E-3,5C000400,-0723,0829,12203,032.6,045.6,0.246,759.3,01.16,0.508
2016-08-30 04:17:00,2221E-3,5C000400,-0723,0827,12196,032.6,045.6,0.246,759.4,01.16,0.508
2016-08-30 04:18:00,2188E-3,5C000400,-0723,0827,12039,032.6,045.6,0.246,759.3,01.16,0.508
2016-08-30 04:19:00,2208E-3,5C000400,-0723,0827,12257,032.6,045.6,0.246,759.4,01.16,0.508
2016-08-30 04:20:00,2176E-3,5C000400,-0723,0827,12232,032.6,045.6,0.246,759.4,01.16,0.508